DW7262 La Rochelle FR current weather conditions

sailwx.info

Wind from 271

Air temperature 18.9° C
Dewpoint 15.7° C

Last reported at 2016-Jul-29 01:42 UTC.
Time now 2016-Jul-30 03:33 UTC

Location: N 45°57' W 001°22'.
View on Google Maps.

See reports from other nearby stations

  
Tides and Currents Weather Stations Pressure Air Temp Water Temp Dewpoint Dewpoint Depression Visibility Wind Speed Wind Dir Waves Ship Positions
date/time (UTC)wind fromknots sea level pressurealtimeterstation pressurevisibilityair tempwater tempwave heightnotes
2016-Jul-29 01:42 271 18.9
2016-Jul-29 01:32 283 19.4
2016-Jul-29 01:22 287 19.4
2016-Jul-29 01:12 285 19.4
2016-Jul-29 01:01 318 19.4
2016-Jul-29 00:51 288 19.4
2016-Jul-28 23:51 278 0 gusting 4 20.0
2016-Jul-28 23:41 288 19.4
2016-Jul-28 23:31 321 19.4
2016-Jul-28 23:21 285 19.4
2016-Jul-28 23:12 290 0 gusting 3 19.4
2016-Jul-28 22:50 278 0 gusting 5 20.0
2016-Jul-28 22:40 283 1 gusting 5 20.0
2016-Jul-28 22:17 283 19.4
2016-Jul-28 22:08 301 20.0
2016-Jul-28 21:57 271 0 gusting 4 19.4
2016-Jul-28 21:48 283 19.4
2016-Jul-28 21:14 294 20.0
2016-Jul-28 21:04 289 0 gusting 5 20.0
2016-Jul-28 20:42 264 20.0
2016-Jul-28 20:19 305 20.0
2016-Jul-28 20:09 256 20.0
2016-Jul-28 19:23 291 20.0
2016-Jul-28 19:01 280 0 gusting 4 20.0
2016-Jul-28 18:38 274 1 gusting 5 20.0
2016-Jul-28 18:29 305 1 gusting 5 20.0
2016-Jul-28 18:18 290 0 gusting 5 20.0
2016-Jul-28 18:08 285 1 gusting 5 20.0
2016-Jul-28 17:58 273 1 gusting 5 20.6
2016-Jul-28 17:36 274 0 gusting 4 20.6
2016-Jul-28 17:26 266 2 gusting 5 20.6
2016-Jul-28 17:17 270 1 gusting 5 20.6
2016-Jul-28 17:07 283 2 gusting 6 20.6
2016-Jul-28 16:45 264 1 gusting 6 20.6
2016-Jul-28 16:11 278 2 gusting 6 21.1
2016-Jul-28 15:50 236 2 gusting 7 21.1
2016-Jul-28 14:29 262 2 gusting 7 21.1
2016-Jul-28 14:18 294 2 gusting 7 21.1
2016-Jul-28 14:08 311 1 gusting 6 21.1
2016-Jul-28 13:34 315 4 gusting 8 21.1
2016-Jul-28 13:00 260 3 gusting 7 20.6
2016-Jul-28 11:39 281 2 gusting 6 20.0
2016-Jul-28 11:05 319 2 gusting 7 21.1
2016-Jul-28 10:56 293 3 gusting 7 21.1
2016-Jul-28 10:46 307 3 gusting 7 21.1
2016-Jul-28 10:24 359 1 gusting 6 21.1
2016-Jul-28 10:14 281 3 gusting 7 21.1
2016-Jul-28 10:04 300 3 gusting 7 21.1
2016-Jul-28 09:54 312 1 gusting 5 21.1
2016-Jul-28 09:45 326 1 gusting 5 20.6
2016-Jul-28 09:23 297 1 gusting 7 20.0
2016-Jul-28 09:12 291 2 gusting 7 20.0
2016-Jul-28 09:03 302 1 gusting 6 19.4
2016-Jul-28 08:53 287 1 gusting 7 19.4
2016-Jul-28 08:42 308 3 gusting 7 19.4
2016-Jul-28 08:08 330 2 gusting 5 19.4
2016-Jul-28 07:21 288 19.4
2016-Jul-28 07:00 242 18.9
2016-Jul-28 06:50 233 18.9
2016-Jul-28 06:40 221 18.9
2016-Jul-28 06:30 257 18.9
2016-Jul-28 05:44 240 18.3
2016-Jul-28 05:34 269 18.3